STARLINK-11152 [DTC] (60194 NORAD) Tracking and Keplerian Element Data

This shows tracking and keplerian element data for the satellite.

Feedback or suggestion? Click here.




ElementValue
Catalog60194
NameSTARLINK-11152 [DTC]
Epoch Orbit1717
Epoch Day286.83316305
Epoch Year2024
RAAN169.4873
Inclination53.1573
Eccentricity0.0001187
Argument of Perigee130.7711
Mean Anonmoly229.341
Mean Motion15.69735991
Decay Rate0.0005792
L11 60194U 24124M 24286.83316305 .00057920 00000+0 47908-3 0 9997
L22 60194 53.1573 169.4873 0001187 130.7711 229.3410 15.69735991 17173



Live tracking and technical data element details for STARLINK-11152 [DTC] (NORAD 60194). STARLINK-11152 [DTC] can be tracked NOW for your location showing map with azimuth and elevation plus other details from your city location.







IsCatalogInMostPopularTable: catalog: 60194, numindb: 12
Update: records affected: 1



GetName: 60194 STARLINK-11152 [DTC]

Hit Count: updated at: Thu, 23 Jan 2025 14:18:03 GMT